Wind_Speed
18 24 26 26 24 22 21 21 19 18 17 18 18 18 18 17 17 16 17 18 19 18 19 20 22 23 22
19 26 27 27 26 25 22 19 20 19 19 19 18 19 20 20 17 16 17 19 21 22 22 23 24 24 23
16 22 26 27 26 23 23 24 23 21 19 19 18 18 17 16 17 18 19 22 23 25 26 26 25 24 24
18 19 22 24 21 23 27 25 26 24 22 20 20 19 19 19 19 20 23 24 23 23 23 24 24 25 25
16 15 15 15 17 19 20 22 26 25 25 24 23 21 19 21 25 28 25 21 21 22 23 24 26 27 28
20 18 20 19 18 19 18 17 14 15 15 18 20 25 30 30 29 22 22 23 24 25 26 28 28 29 29
29 28 23 19 17 15 14 15 17 23 28 32 26 28 25 28 27 25 25 26 25 26 27 29 30 31 33
27 20 19 22 25 27 29 31 30 28 26 25 22 26 25 27 24 24 26 28 32 33 32 33 34 35 37
29 29 29 28 27 28 30 22 22 23 20 23 20 22 24 28 28 26 28 28 28 29 30 31 32 33 33
30 33 31 30 27 26 21 16 19 22 23 22 22 21 23 26 26 25 27 27 27 27 26 24 29 34 36
32 33 32 33 33 32 31 29 24 25 25 19 22 23 22 27 28 28 30 29 27 26 29 34 35 36 38
35 33 29 29 29 32 33 31 30 30 30 23 21 21 22 24 25 26 23 21 24 29 32 35 38 41 43
20 18 26 30 29 27 28 27 27 29 30 29 28 29 30 29 19 23 27 28 29 31 33 35 38 38 39
30 31 27 21 19 18 18 20 22 27 29 29 26 26 24 24 24 28 28 27 31 32 36 40 40 40 39
20 20 16 15 17 17 20 22 23 24 24 24 24 24 28 28 27 27 32 34 35 36 36 39 40 38 38
14 15 17 17 19 19 21 22 22 21 18 19 21 22 26 34 27 32 34 35 39 38 37 36 40 40 41
24 24 22 21 21 20 19 19 17 17 19 21 21 18 9 13 34 29 35 36 34 36 36 36 40 43 42
Wind_Direction
281 291 298 304 308 309 310 309 308 309 306 303 300 295 294 291 294 293 295 297 297 293 293 293 298 298 297
284 293 298 303 307 308 309 307 307 305 301 298 296 294 290 288 285 290 295 296 293 293 290 292 293 292 292
274 286 292 300 305 303 302 303 303 304 298 292 289 288 290 284 281 285 293 295 291 285 284 285 286 286 286
268 273 282 293 292 295 299 302 302 301 295 286 285 285 283 281 281 284 292 294 290 287 284 282 281 283 284
259 260 255 260 263 285 281 286 291 290 292 290 292 291 290 289 291 294 293 292 288 287 285 283 282 281 282
246 246 254 256 264 262 267 274 284 287 278 284 289 286 287 286 291 288 289 288 286 284 284 284 282 282 281
255 253 255 258 261 257 253 262 268 271 278 278 279 276 277 282 284 284 284 284 283 283 284 283 282 282 283
256 256 260 268 268 266 266 267 270 268 264 269 274 275 279 279 280 280 282 282 283 283 283 283 283 284 284
258 263 265 263 259 260 253 251 263 267 265 261 269 271 277 278 278 276 278 278 280 282 283 284 283 285 288
254 258 260 261 261 263 269 260 265 274 268 259 269 272 279 275 272 274 272 270 277 279 279 283 290 292 291
249 251 249 253 255 253 256 260 261 262 271 267 271 272 266 280 279 274 272 271 269 267 274 283 286 285 285
238 240 240 239 241 246 255 257 260 259 270 264 264 263 268 273 276 279 273 267 271 276 279 281 281 282 281
249 232 234 239 241 240 245 244 254 265 268 265 258 261 259 260 275 282 285 280 277 276 275 274 276 277 277
247 246 248 241 228 237 243 249 254 262 263 258 256 262 261 266 274 279 280 276 280 276 275 276 275 272 270
234 240 241 233 234 234 241 245 249 258 262 257 249 256 268 272 273 273 278 278 278 277 275 274 274 271 270
247 245 246 246 251 248 246 246 248 252 250 257 269 276 276 276 268 274 273 273 275 275 274 272 274 273 269
250 253 251 245 244 244 239 234 241 250 259 267 266 259 266 270 280 272 271 273 276 275 271 268 269 272 272
Height
877 878 877 878 878 878 877 876 876 875 875 875 875 875 874 873 873 872 871 870 869 868 867 866 866 864 863
873 873 873 873 872 871 871 871 871 871 871 871 871 870 869 868 868 867 866 865 865 864 863 862 861 860 858
870 871 869 869 867 866 866 865 866 866 865 865 865 865 864 864 864 863 862 860 859 859 858 857 856 854 853
866 866 866 865 865 864 861 861 860 860 860 860 860 859 859 859 858 858 856 854 853 852 851 851 849 848 847
860 860 860 861 861 860 859 858 856 856 854 853 852 852 853 853 852 850 849 847 846 846 845 844 843 841 840
853 853 853 853 855 856 856 855 853 852 849 847 848 847 847 846 844 843 843 842 840 840 838 837 835 834 833
845 845 846 848 849 850 850 849 848 847 846 840 843 839 839 838 838 837 835 835 833 832 830 829 828 826 824
839 839 840 841 843 844 843 841 838 838 839 834 836 832 831 830 830 830 829 827 826 824 822 820 819 818 816
831 832 832 833 834 834 832 832 829 831 832 830 828 825 824 822 820 820 820 818 816 815 813 812 811 809 806
822 822 824 824 825 825 825 825 825 821 825 825 822 821 816 813 812 810 809 809 807 806 805 804 803 802 799
813 812 812 813 814 816 817 818 816 813 817 819 816 814 813 806 805 804 802 800 799 798 798 797 796 795 791
800 800 801 803 804 806 807 807 808 807 808 810 808 808 806 801 797 795 793 791 791 789 788 785 783 781 779
789 789 791 793 795 797 798 798 800 800 800 800 800 799 798 792 788 786 786 784 783 781 777 774 770 768 763
781 782 785 786 786 788 790 792 793 791 790 790 790 790 787 785 784 780 779 776 773 771 767 761 757 753 749
772 774 776 778 779 781 783 784 784 783 782 782 782 782 780 779 776 774 769 765 762 758 755 747 742 739 736
768 769 771 771 773 774 775 775 775 775 774 775 775 774 771 766 770 764 760 755 748 745 742 736 726 724 721
762 763 764 765 766 766 766 767 767 767 767 767 767 767 764 756 752 757 750 743 739 732 728 723 714 708 706